Stations météo

réclame
Mon MeteoGroup
Cap-de-la Heve, France (7028): Température de l'air & dewpoint: 18.04.2018 08:00:00 - 24.04.2018 08:00:00 (CEST)Cap-de-la Heve, France (7028): Température de l'air 5cm: 18.04.2018 08:00:00 - 24.04.2018 08:00:00 (CEST)Cap-de-la Heve, France (7028): Vitesse du vent & gusts: 18.04.2018 08:00:00 - 24.04.2018 08:00:00 (CEST)Cap-de-la Heve, France (7028): Direction du vent: 18.04.2018 08:00:00 - 24.04.2018 08:00:00 (CEST)Cap-de-la Heve, France (7028): reduced air pressure: 18.04.2018 08:00:00 - 24.04.2018 08:00:00 (CEST)Cap-de-la Heve, France (7028): visibility: 18.04.2018 08:00:00 - 24.04.2018 08:00:00 (CEST)Cap-de-la Heve, France (7028): Quantités de précipitations: 18.04.2018 08:00:00 - 24.04.2018 08:00:00 (CEST)
Date & Time tt [°C] td [°C] tt 5cm [°C] ff [km/h] ff [knt] fx [km/h] fx [knt] dd ppp [hPa] vv [km] rr [mm]
24.04.2018 08:00:00 9,6 7,2 9,6 10 5 37 20 SE 1019,5 - 0,0
24.04.2018 07:00:00 9,6 7,2 9,7 16 8 37 20 SW 1019,1 - 0,0
24.04.2018 06:00:00 9,6 6,9 9,2 14 7 34 18 SW 1019,2 - 0,0
24.04.2018 05:00:00 9,5 6,8 9,2 12 7 40 21 SW 1019,7 30 0,0
24.04.2018 04:00:00 9,7 6,6 9,3 16 9 40 22 SW 1019,8 - 0,0
24.04.2018 03:00:00 9,8 6,9 9,4 15 8 39 21 SW 1020,0 - 0,0
24.04.2018 02:00:00 10,0 6,5 9,2 14 8 38 20 SW 1020,1 30 0,0
24.04.2018 01:00:00 10,1 6,1 9,3 16 9 37 20 WSW 1020,6 - 0,0
24.04.2018 00:00:00 10,2 6,3 9,2 19 10 39 21 WSW 1020,8 - 0,0
23.04.2018 23:00:00 10,1 6,6 9,3 22 12 32 17 W 1020,9 30 0,0
23.04.2018 22:00:00 10,0 6,0 9,6 9 5 25 14 WNW 1020,9 - 0,0
23.04.2018 21:00:00 10,4 6,0 10,1 17 9 36 19 W 1020,2 - 0,0
23.04.2018 20:00:00 11,0 6,7 12,0 13 7 34 18 WSW 1020,1 20 0,0
23.04.2018 19:00:00 11,4 7,3 12,9 13 7 29 16 WNW 1020,5 - 0,0
23.04.2018 18:00:00 11,2 7,1 14,1 13 7 23 13 NW 1020,7 - 0,0
23.04.2018 17:00:00 11,3 7,2 14,3 13 7 23 12 NW 1020,7 20 0,0
23.04.2018 16:00:00 11,7 8,0 14,7 13 7 24 13 NW 1021,0 - 0,0
23.04.2018 15:00:00 12,5 8,4 16,8 14 8 22 12 W 1021,0 - 0,0
23.04.2018 14:00:00 13,0 8,3 18,4 15 8 22 12 W 1020,9 20 0,0
23.04.2018 13:00:00 12,6 9,1 16,3 13 7 27 15 W 1020,8 - 0,0
23.04.2018 12:00:00 11,9 7,8 18,2 19 10 30 16 W 1020,8 - 0,0
23.04.2018 11:00:00 12,1 8,6 13,2 18 10 33 18 W 1020,5 25 0,0
23.04.2018 10:00:00 10,5 7,7 11,0 10 5 29 16 WNW 1019,9 - 0,0
23.04.2018 09:00:00 9,7 7,3 10,0 11 6 30 16 NW 1019,4 - 0,0
23.04.2018 08:00:00 9,5 7,4 9,5 12 7 28 15 NW 1018,7 - 0,0
23.04.2018 07:00:00 9,5 7,6 9,8 8 4 24 13 WNW 1017,8 - 0,0
23.04.2018 06:00:00 9,9 8,2 10,5 8 4 21 12 NW 1017,5 - 0,0
23.04.2018 05:00:00 10,2 8,6 10,7 10 5 29 16 NW 1017,4 - 0,0
23.04.2018 04:00:00 10,4 9,3 10,7 11 6 34 18 WNW 1017,1 - 0,0
23.04.2018 03:00:00 10,8 9,4 11,0 17 9 34 18 W 1016,7 - 0,0
23.04.2018 02:00:00 11,3 9,9 11,7 12 7 41 22 WNW 1016,4 20 0,0
23.04.2018 01:00:00 11,8 8,8 11,4 10 5 27 14 WNW 1016,2 - 0,0
23.04.2018 00:00:00 11,2 7,7 10,9 12 6 17 9 W 1015,8 - 0,0
22.04.2018 23:00:00 11,4 6,3 10,7 9 5 24 13 WNW 1015,1 25 0,0
22.04.2018 22:00:00 11,6 4,3 10,9 15 8 28 15 N 1014,3 - 0,0
22.04.2018 21:00:00 12,2 4,9 11,8 15 8 28 15 N 1013,7 - 0,0
22.04.2018 20:00:00 13,0 9,1 13,8 18 10 29 15 N 1013,5 - 0,0
22.04.2018 19:00:00 14,2 9,8 15,0 15 8 39 21 NNW 1012,9 - 0,0
22.04.2018 18:00:00 15,2 10,2 15,5 21 11 39 21 NW 1012,4 - 0,0
22.04.2018 17:00:00 15,9 10,4 18,0 17 9 41 22 NNW 1012,1 - 0,0
22.04.2018 16:00:00 16,4 11,1 22,0 15 8 35 19 N 1012,3 - 0,0
22.04.2018 15:00:00 17,4 11,0 22,5 16 8 30 16 NW 1012,0 - 0,0
22.04.2018 14:00:00 18,7 10,3 22,3 14 7 28 15 WNW 1011,7 15 0,0
22.04.2018 13:00:00 20,0 11,0 23,5 11 6 32 18 SW 1011,5 - 0,0
22.04.2018 12:00:00 19,6 10,0 19,8 15 8 29 16 SSW 1011,6 - 0,0
22.04.2018 11:00:00 18,4 11,2 18,2 16 9 20 11 S 1011,8 15 0,0
22.04.2018 10:00:00 17,1 12,4 16,4 10 6 16 9 S 1012,0 - 0,0
22.04.2018 09:00:00 16,9 12,0 14,5 11 6 21 11 SSE 1011,9 - 0,0
22.04.2018 08:00:00 16,3 11,7 13,4 14 8 22 12 ESE 1011,9 15 0,0
22.04.2018 07:00:00 15,6 11,8 13,7 10 6 18 10 SE 1011,9 - 0,0
22.04.2018 06:00:00 15,6 12,2 14,3 13 7 27 15 ESE 1012,4 - 0,0
22.04.2018 05:00:00 16,6 11,9 15,0 18 10 31 17 ESE 1012,8 10 0,0
22.04.2018 04:00:00 17,3 12,2 14,3 19 11 34 18 ESE 1012,9 - 0,0
22.04.2018 03:00:00 16,3 12,1 13,8 18 10 32 18 ENE 1013,4 - 0,0
22.04.2018 02:00:00 15,9 11,9 13,6 23 13 33 18 ENE 1014,3 - 0,0
22.04.2018 01:00:00 15,8 12,0 13,7 18 10 33 18 NE 1015,3 - 0,4
22.04.2018 00:00:00 15,8 11,6 14,0 24 13 39 21 NNW 1016,4 - 0,8
21.04.2018 23:00:00 18,4 10,5 17,0 13 7 27 15 NNW 1015,2 15 0,0
21.04.2018 22:00:00 22,6 10,4 19,6 14 8 34 18 ESE 1014,6 - 0,0
21.04.2018 21:00:00 24,1 9,7 21,2 14 8 34 18 E 1014,5 - 0,0
21.04.2018 20:00:00 25,0 9,3 22,0 14 8 30 16 ESE 1015,1 15 0,0
21.04.2018 19:00:00 25,3 8,7 23,0 18 10 34 18 SE 1015,0 - 0,0
21.04.2018 18:00:00 26,2 9,5 24,8 16 9 31 17 ESE 1016,0 - 0,0
21.04.2018 17:00:00 26,4 10,9 27,1 16 9 26 14 SE 1016,8 - 0,0
21.04.2018 16:00:00 25,3 11,5 29,0 11 6 19 10 S 1017,8 - 0,0
21.04.2018 15:00:00 25,1 12,0 28,6 8 5 31 17 S 1018,5 - 0,0
21.04.2018 14:00:00 24,8 12,4 27,8 17 9 33 18 SE 1018,9 15 0,0
21.04.2018 13:00:00 24,0 13,2 25,8 16 9 29 16 SE 1019,6 - 0,0
21.04.2018 12:00:00 22,7 12,9 22,5 14 8 33 18 ESE 1020,2 - 0,0
21.04.2018 11:00:00 20,9 11,8 19,7 22 12 39 21 ESE 1020,3 10 0,0
21.04.2018 10:00:00 19,4 10,7 17,4 21 11 39 21 E 1020,3 - 0,0
21.04.2018 09:00:00 18,1 10,7 15,9 17 9 34 18 E 1020,7 - 0,0
21.04.2018 08:00:00 17,5 10,1 14,5 21 11 37 20 E 1020,8 10 0,0
21.04.2018 07:00:00 16,8 10,2 13,7 16 8 26 14 E 1020,9 - 0,0
21.04.2018 06:00:00 16,2 10,1 12,7 16 8 23 13 E 1020,9 - 0,0
21.04.2018 05:00:00 15,3 9,9 12,3 6 3 14 7 ESE 1021,4 - 0,0
21.04.2018 04:00:00 16,5 9,7 13,4 4 2 14 8 SE 1021,8 - 0,0
21.04.2018 03:00:00 17,0 8,7 13,2 8 5 14 8 ENE 1022,0 - 0,0
21.04.2018 02:00:00 17,8 8,9 14,4 9 5 15 8 ENE 1022,1 15 0,0
21.04.2018 01:00:00 18,2 9,3 15,0 10 6 16 9 E 1022,2 - 0,0
21.04.2018 00:00:00 18,7 9,2 15,8 11 6 17 9 ENE 1022,5 - 0,0
20.04.2018 23:00:00 19,2 9,7 15,9 11 6 18 10 ENE 1022,7 15 0,0
20.04.2018 22:00:00 20,1 9,9 16,6 12 7 20 11 NE 1022,7 - 0,0
20.04.2018 21:00:00 20,7 11,1 17,4 10 5 17 9 NE 1022,4 - 0,0
20.04.2018 20:00:00 22,1 12,6 19,0 9 5 16 9 NNE 1022,1 12 0,0
20.04.2018 19:00:00 22,4 10,8 20,3 11 6 19 10 NNE 1022,3 - 0,0
20.04.2018 18:00:00 22,6 11,6 22,9 10 6 18 10 N 1022,6 - 0,0
20.04.2018 17:00:00 23,1 12,4 25,2 9 5 16 8 N 1022,9 10 0,0
20.04.2018 16:00:00 21,6 11,3 25,0 9 5 19 10 NNE 1023,6 - 0,0
20.04.2018 15:00:00 19,9 11,4 26,3 11 6 19 10 N 1024,0 - 0,0
20.04.2018 14:00:00 18,0 10,6 25,3 10 5 16 8 N 1024,3 - 0,0
20.04.2018 13:00:00 16,8 10,6 22,8 7 4 12 6 NNW 1024,5 - 0,0
20.04.2018 12:00:00 16,8 11,5 19,7 4 2 12 6 W 1024,5 - 0,0
20.04.2018 11:00:00 16,6 11,3 17,8 5 3 9 5 WNW 1024,3 3,0 0,0
20.04.2018 10:00:00 17,5 11,3 15,5 4 2 11 6 SW 1024,0 - 0,0
20.04.2018 09:00:00 16,8 11,7 11,4 7 4 10 5 SSE 1023,7 - 0,0
20.04.2018 08:00:00 12,9 9,5 9,9 6 3 7 4 SE 1023,7 6 0,0
20.04.2018 07:00:00 12,5 9,3 10,2 2 1 9 5 SW 1023,2 - 0,0
20.04.2018 06:00:00 12,9 9,2 10,8 5 3 16 8 SW 1023,2 - 0,0
20.04.2018 05:00:00 11,7 8,5 10,8 4 2 12 7 SW 1023,3 20 0,0
20.04.2018 04:00:00 12,5 9,1 11,0 6 3 13 7 S 1023,4 - 0,0
20.04.2018 03:00:00 14,1 9,1 11,6 6 3 10 5 SE 1023,3 - 0,0
20.04.2018 02:00:00 15,6 10,1 12,4 5 3 10 5 SE 1023,4 20 0,0
20.04.2018 01:00:00 17,0 10,6 12,8 4 2 6 4 ESE 1023,3 - 0,0
20.04.2018 00:00:00 17,8 10,4 15,1 5 3 13 7 SE 1023,5 - 0,0
19.04.2018 23:00:00 20,5 12,2 17,0 9 5 16 9 ENE 1023,3 20 0,0
19.04.2018 22:00:00 21,0 11,1 17,5 12 6 22 12 NE 1023,1 - 0,0
19.04.2018 21:00:00 21,4 11,4 18,5 12 7 18 10 NE 1022,6 - 0,0
19.04.2018 20:00:00 23,0 9,7 19,3 8 4 14 8 N 1022,4 25 0,0
19.04.2018 19:00:00 23,6 9,6 20,9 9 5 17 9 NNE 1022,6 - 0,0
19.04.2018 18:00:00 22,2 10,0 21,7 12 6 19 10 NNE 1022,8 - 0,0
19.04.2018 17:00:00 20,2 9,4 23,2 13 7 19 11 N 1022,9 - 0,0
19.04.2018 16:00:00 21,5 9,7 26,3 11 6 20 11 N 1023,4 - 0,0
19.04.2018 15:00:00 20,9 10,1 28,3 11 6 20 11 N 1023,6 - 0,0
19.04.2018 14:00:00 22,9 10,3 27,2 5 3 10 5 WNW 1023,4 - 0,0
19.04.2018 13:00:00 22,1 9,9 26,8 7 4 10 5 W 1023,8 - 0,0
19.04.2018 12:00:00 22,7 10,2 23,6 5 3 11 6 SSW 1023,9 - 0,0
19.04.2018 11:00:00 21,3 9,2 20,8 7 4 14 7 SSE 1023,9 20 0,0
19.04.2018 10:00:00 19,9 9,2 16,8 5 3 15 8 ENE 1023,7 - 0,0
19.04.2018 09:00:00 17,3 8,7 14,0 10 5 22 12 ENE 1023,6 - 0,0
19.04.2018 08:00:00 16,1 8,1 13,1 15 8 23 12 E 1023,3 20 0,0
19.04.2018 07:00:00 16,2 7,7 13,4 11 6 27 14 E 1022,9 - 0,0
19.04.2018 06:00:00 16,4 7,9 14,1 13 7 26 14 E 1022,9 - 0,0
19.04.2018 05:00:00 17,8 7,5 15,5 17 9 34 19 ESE 1023,1 25 0,0
19.04.2018 04:00:00 19,1 7,5 16,4 22 12 35 19 ESE 1023,1 - 0,0
19.04.2018 03:00:00 18,9 7,9 16,3 19 11 37 20 E 1023,3 - 0,0
19.04.2018 02:00:00 18,9 7,9 16,5 19 10 37 20 E 1023,6 25 0,0
19.04.2018 01:00:00 20,4 7,4 17,8 21 11 38 20 ESE 1023,7 - 0,0
19.04.2018 00:00:00 21,2 7,4 18,4 23 12 37 20 ESE 1023,9 - 0,0
18.04.2018 23:00:00 21,5 7,0 17,8 18 10 27 15 ESE 1024,2 30 0,0
18.04.2018 22:00:00 21,9 8,0 18,5 13 7 23 13 SE 1024,3 - 0,0
18.04.2018 21:00:00 22,7 8,8 18,9 13 7 24 13 SE 1024,0 - 0,0
18.04.2018 20:00:00 23,7 9,3 20,9 13 7 34 19 SE 1023,9 25 0,0
18.04.2018 19:00:00 24,3 9,5 22,6 19 11 37 20 SE 1023,9 - 0,0
18.04.2018 18:00:00 24,3 10,2 23,7 20 11 39 21 SE 1024,1 - 0,0
18.04.2018 17:00:00 24,1 10,0 25,0 17 9 38 20 SE 1024,6 25 0,0
18.04.2018 16:00:00 23,5 8,0 25,2 24 13 42 23 SE 1025,0 - 0,0
18.04.2018 15:00:00 23,1 7,2 25,4 22 12 44 24 SE 1025,6 - 0,0
18.04.2018 14:00:00 22,2 9,7 24,6 22 12 39 21 SE 1026,3 25 0,0
18.04.2018 13:00:00 20,7 9,9 23,6 23 13 41 22 ESE 1027,0 - 0,0
18.04.2018 12:00:00 19,7 9,6 20,8 19 11 36 19 ESE 1027,6 - 0,0
18.04.2018 11:00:00 18,8 9,3 19,2 17 9 30 16 ESE 1028,3 20 0,0
18.04.2018 10:00:00 18,5 8,7 15,5 11 6 18 10 E 1028,5 - 0,0
18.04.2018 09:00:00 16,3 9,0 11,9 10 6 17 9 E 1028,4 - 0,0
18.04.2018 08:00:00 13,7 8,7 10,5 11 6 16 9 ENE 1028,4 15 0,0

tt = Température de l'air
td = dewpoint
tt 5cm = Température de l'air 5cm
ff = Vitesse du vent
fx = gusts
dd = Direction du vent
ppp = reduced air pressure
vv = visibility
rr = Quantités de précipitations

stations d'obs. à proximité